| time (UTC) | temp F | wind direction | speed MPH | gust MPH | rain 1hr in | rain 24hr in | rain mn in | humidity % | barometer mb |
| 20260504081513 | 59 | 317 | 7.0 | 11.0 | 0.01 | 0.01 | 0.01 | 77 | 1008.4 |
| 20260504044546 | 58 | 179 | 3.0 | 7.0 | 0.00 | 0.00 | 0.00 | 69 | 1009.6 |
| 20260504043040 | 58 | 194 | 3.0 | 6.0 | 0.00 | 0.00 | 0.00 | 69 | 1009.7 |
| 20260504041538 | 58 | 155 | 3.0 | 9.0 | 0.00 | 0.00 | 0.00 | 68 | 1009.6 |
| 20260504040046 | 58 | 219 | 3.0 | 9.0 | 0.00 | 0.00 | 0.00 | 69 | 1009.6 |
| 20260504034553 | 59 | 173 | 5.0 | 11.0 | 0.00 | 0.00 | 0.00 | 68 | 1009.8 |
| 20260504033036 | 59 | 235 | 5.0 | 11.0 | 0.00 | 0.00 | 0.00 | 68 | 1010.5 |
| 20260504031534 | 59 | 213 | 3.0 | 8.0 | 0.00 | 0.00 | 0.00 | 68 | 1010.8 |
| 20260504030042 | 60 | 205 | 5.0 | 11.0 | 0.00 | 0.00 | 0.00 | 65 | 1010.7 |
| 20260504024532 | 60 | 133 | 2.0 | 3.0 | 0.00 | 0.00 | 0.00 | 65 | 1010.9 |
| 20260504023033 | 60 | 73 | 0.0 | 3.0 | 0.00 | 0.00 | 0.00 | 66 | 1011.1 |
| 20260504021534 | 60 | 125 | 0.0 | 4.0 | 0.00 | 0.00 | 0.00 | 66 | 1010.7 |
| 20260504020031 | 61 | 273 | 0.0 | 5.0 | 0.00 | 0.00 | 0.00 | 64 | 1010.8 |
| 20260504014540 | 62 | 256 | 2.0 | 6.0 | 0.00 | 0.00 | 0.00 | 61 | 1010.8 |
| 20260504013033 | 62 | 140 | 1.0 | 3.0 | 0.00 | 0.00 | 0.00 | 65 | 1010.4 |
| 20260504011530 | 62 | 42 | 0.0 | 4.0 | 0.00 | 0.00 | 0.00 | 60 | 1010.6 |
| 20260504010029 | 62 | 109 | 0.0 | 4.0 | 0.00 | 0.00 | 0.00 | 59 | 1010.1 |
| 20260504004532 | 64 | 226 | 1.0 | 8.0 | 0.00 | 0.00 | 0.00 | 56 | 1010.1 |
| 20260504003034 | 65 | 218 | 2.0 | 10.0 | 0.00 | 0.00 | 0.00 | 54 | 1010.1 |
| 20260504001527 | 66 | 182 | 5.0 | 11.0 | 0.00 | 0.00 | 0.00 | 52 | 1010.1 |
| 20260504000026 | 67 | 215 | 5.0 | 14.0 | 0.00 | 0.00 | 0.00 | 51 | 1010.2 |
| 20260503234536 | 67 | 151 | 6.0 | 16.0 | 0.00 | 0.00 | 0.00 | 51 | 1010.3 |
| 20260503233022 | 68 | 194 | 6.0 | 15.0 | 0.00 | 0.00 | 0.00 | 51 | 1010.5 |
| 20260503231521 | 68 | 232 | 5.0 | 19.0 | 0.00 | 0.00 | 0.00 | 51 | 1010.9 |
| 20260503230020 | 68 | 268 | 6.0 | 18.0 | 0.00 | 0.00 | 0.00 | 49 | 1011.2 |
| 20260503224520 | 68 | 181 | 9.0 | 17.0 | 0.00 | 0.00 | 0.00 | 48 | 1011.1 |
| 20260503223019 | 68 | 228 | 9.0 | 18.0 | 0.00 | 0.00 | 0.00 | 48 | 1011.1 |
| 20260503221517 | 68 | 232 | 8.0 | 19.0 | 0.00 | 0.00 | 0.00 | 48 | 1011.0 |
| 20260503220017 | 68 | 130 | 4.0 | 21.0 | 0.00 | 0.00 | 0.00 | 51 | 1010.7 |
| 20260503214517 | 68 | 176 | 10.0 | 20.0 | 0.00 | 0.00 | 0.00 | 49 | 1010.7 |
| 20260503213015 | 67 | 226 | 9.0 | 25.0 | 0.00 | 0.00 | 0.00 | 51 | 1010.8 |
| 20260503211513 | 68 | 185 | 11.0 | 25.0 | 0.00 | 0.00 | 0.00 | 49 | 1011.1 |
| 20260503210011 | 67 | 266 | 10.0 | 23.0 | 0.00 | 0.00 | 0.00 | 50 | 1011.3 |
| 20260503204509 | 67 | 218 | 10.0 | 23.0 | 0.00 | 0.00 | 0.00 | 50 | 1011.8 |
| 20260503203009 | 67 | 244 | 9.0 | 24.0 | 0.00 | 0.00 | 0.00 | 51 | 1012.1 |
| 20260503201504 | 67 | 226 | 9.0 | 32.0 | 0.00 | 0.00 | 0.00 | 51 | 1012.5 |
| 20260503194557 | 64 | 148 | 8.0 | 22.0 | 0.00 | 0.00 | 0.00 | 54 | 1013.5 |
| 20260503193100 | 65 | 211 | 9.0 | 23.0 | 0.00 | 0.00 | 0.00 | 53 | 1014.0 |
| 20260503191608 | 65 | 160 | 6.0 | 25.0 | 0.00 | 0.00 | 0.00 | 51 | 1014.5 |
| 20260503190054 | 64 | 230 | 7.0 | 23.0 | 0.00 | 0.00 | 0.00 | 54 | 1014.8 |
| 20260503184557 | 64 | 224 | 9.0 | 21.0 | 0.00 | 0.00 | 0.00 | 52 | 1015.0 |
| 20260503183101 | 65 | 271 | 8.0 | 18.0 | 0.00 | 0.00 | 0.00 | 51 | 1015.3 |
| 20260503181544 | 64 | 322 | 6.0 | 23.0 | 0.00 | 0.00 | 0.00 | 53 | 1015.5 |
| 20260503180046 | 64 | 210 | 7.0 | 21.0 | 0.00 | 0.00 | 0.00 | 54 | 1016.0 |
| 20260503174539 | 64 | 219 | 6.0 | 18.0 | 0.00 | 0.00 | 0.00 | 54 | 1016.1 |
| 20260503173103 | 64 | 170 | 9.0 | 21.0 | 0.00 | 0.00 | 0.00 | 55 | 1016.5 |
| 20260503171534 | 63 | 252 | 8.0 | 17.0 | 0.00 | 0.00 | 0.00 | 55 | 1017.1 |